Location: Elstree
(51.6403°N, 0.2969°W)
Time: 07:20:20
(UTC+00:00)

Envisat - Pass Details

Date: 10 December 2022
Orbit: 763 x 765 km, 98.2° (Epoch: 04 February)

Event Time Altitude Azimuth Distance (km) Brightness Sun altitude
Rises 03:17:39 0° 23° (NNE) 3,247 6.7 -41.7°
Reaches altitude 10° 03:20:22 10° 37° (NE) 2,315 5.9 -41.3°
Enters shadow 03:21:03 13° 42° (NE) 2,108 5.7 -41.2°
